Home > Time Zones > World Clock > Weather > Iran > Kerman > Past weeks

Flag for Iran Weather past 2 weeks in Kerman, Iran

Now
84 °F

Sunny.


Feels Like: 81 °F
Forecast: 60 / 92 °F
Wind: 7 mph from Northwest

Location: Kerman Airport

Current Time: Aug 28, 2015 at 10:55:45 AM

Latest Report: Aug 28, 2015 at 10:00 AM


Visibility: 10 mi

Pressure: 30.15 "Hg (24.70 "Hg at 1762m altitude)

Humidity: 15%

Dew point: 32 °F

Location of KermanLocation

Historic Weather in Kerman — Graph

°F

Kerman temperature yesterday

Maximum temperature yesterday: 99 °F (at 3:30 PM)
Minimum temperature yesterday: 63 °F (at 5:30 AM)
Average temperature yesterday: 84 °F

Past Weeks' High & Low Weather Summary

 TemperatureHumidityPressure
High99 °F (Aug 24, 4:30 PM)34% (Aug 24, 3:30 PM)30.15 "Hg (Aug 24, 3:30 PM)
Low52 °F (Aug 14, 6:30 AM)0% (Aug 19, 5:30 PM)29.89 "Hg (Aug 24, 4:30 PM)
Average81 °F11%30.05 "Hg
* Reported Aug 13 9:30 AM — Aug 28 9:30 AM, Kerman, Weather by CustomWeather, © 2015

Note: Actual official high and low records may vary slightly from our data, if they occured in-between our weather recording intervals... More about our weather records

Advertising

Kerman weather history for previous 24 hours

 ConditionsComfort  
Time TempWeatherWind HumidityBarometerVisibility
9:30 AM
Fri, Aug 28
81 °FSunny.9 mph17%30.15 "Hg10 mi
9:00 AM79 °FSunny.5 mph16%30.15 "Hg10 mi
8:30 AM77 °FSunny.5 mph17%30.15 "Hg10 mi
8:00 AM72 °FSunny.7 mph20%30.15 "Hg10 mi
7:30 AM64 °FClear.7 mph26%30.12 "Hg10 mi
6:30 AM64 °FClear.7 mph24%30.12 "Hg10 mi
5:30 AM70 °FClear.7 mph20%30.09 "Hg10 mi
4:30 AM64 °FClear.7 mph22%30.07 "Hg10 mi
3:30 AM66 °FClear.No wind22%30.07 "Hg10 mi
2:30 AM72 °FClear.No wind20%30.07 "Hg10 mi
1:30 AM72 °FClear.No wind19%30.07 "Hg10 mi
12:30 AM73 °FClear.No wind17%30.09 "Hg10 mi
11:30 PM
Thu, Aug 27
75 °FClear.No wind15%30.09 "Hg10 mi
10:30 PM81 °FPassing clouds.5 mph14%30.07 "HgN/A
9:30 PM86 °FPassing clouds.9 mph11%30.07 "HgN/A
8:30 PM88 °FPassing clouds.9 mph10%30.04 "HgN/A
7:30 PM90 °FPassing clouds.9 mph7%30.01 "HgN/A
6:30 PM93 °FPassing clouds.12 mph6%30.01 "HgN/A
5:30 PM97 °FPassing clouds.9 mph6%30.01 "HgN/A
4:30 PM97 °FPassing clouds.14 mph6%30.01 "HgN/A
3:30 PM99 °FPassing clouds.9 mph6%30.01 "HgN/A
2:30 PM97 °FScattered clouds.9 mph6%30.04 "HgN/A
2:00 PM97 °FScattered clouds.9 mph5%30.04 "HgN/A
1:30 PM95 °FScattered clouds.9 mph7%30.07 "HgN/A
12:30 PM95 °FScattered clouds.7 mph6%30.09 "HgN/A
12:00 PM93 °FScattered clouds.7 mph7%30.09 "HgN/A
11:30 AM91 °FPassing clouds.No wind10%30.09 "HgN/A
10:30 AM91 °FPassing clouds.No wind10%30.12 "HgN/A
10:00 AM90 °FPassing clouds.5 mph11%30.12 "HgN/A
Weather by CustomWeather, © 2015

See weather overviewHow to use our weather pages